SWA341 KMSY-KFLL

Flight info

Callsign SWA341
Flight time 1h 4m
Altitude 35000
Route BLVNS Y290 OCHHO VNECK TEEKY3
Aircraft B38M/M-SDE2E3FGHIRWXY/LB1

Departure

Time 2026-05-04 00:37
Airport Louis Armstrong New Orleans International Airport (KMSY)

Arrival

Time 2026-05-04 01:42
Airport Fort Lauderdale Hollywood International Airport (KFLL)
Time Latitude Longitude Altitude Speed Heading
2026-05-04 00:26 29.99311 -90.25638 11 ft 0 kts 316°
2026-05-04 00:26 29.99297 -90.25623 11 ft 3 kts 316°
2026-05-04 00:27 29.99284 -90.25610 11 ft 2 kts 321°
2026-05-04 00:27 29.99274 -90.25601 11 ft 2 kts 337°
2026-05-04 00:27 29.99265 -90.25598 11 ft 1 kts 354°
2026-05-04 00:27 29.99257 -90.25598 11 ft 1 kts
2026-05-04 00:28 29.99249 -90.25600 11 ft 1 kts 25°
2026-05-04 00:28 29.99241 -90.25605 11 ft 1 kts 40°
2026-05-04 00:28 29.99236 -90.25611 11 ft 1 kts 46°
2026-05-04 00:29 29.99235 -90.25611 11 ft 0 kts 47°
2026-05-04 00:29 29.99236 -90.25610 11 ft 0 kts 70°
2026-05-04 00:29 29.99233 -90.25605 11 ft 1 kts 148°
2026-05-04 00:30 29.99224 -90.25605 11 ft 0 kts 183°
2026-05-04 00:30 29.99221 -90.25605 11 ft 0 kts 188°
2026-05-04 00:31 29.99204 -90.25612 11 ft 7 kts 202°
2026-05-04 00:31 29.99114 -90.25642 11 ft 19 kts 195°
2026-05-04 00:31 29.98995 -90.25679 11 ft 7 kts 195°
2026-05-04 00:31 29.98956 -90.25754 11 ft 16 kts 279°
2026-05-04 00:32 29.98994 -90.25918 11 ft 25 kts 285°
2026-05-04 00:32 29.99041 -90.26113 11 ft 23 kts 287°
2026-05-04 00:32 29.99069 -90.26225 11 ft 25 kts 284°
2026-05-04 00:32 29.99101 -90.26364 11 ft 28 kts 285°
2026-05-04 00:33 29.99155 -90.26587 11 ft 29 kts 285°
2026-05-04 00:33 29.99261 -90.27024 11 ft 29 kts 285°
2026-05-04 00:33 29.99313 -90.27239 11 ft 27 kts 285°
2026-05-04 00:34 29.99361 -90.27439 11 ft 25 kts 285°
2026-05-04 00:34 29.99407 -90.27627 11 ft 23 kts 286°
2026-05-04 00:34 29.99447 -90.27797 11 ft 21 kts 285°
2026-05-04 00:34 29.99486 -90.27955 11 ft 19 kts 286°
2026-05-04 00:35 29.99520 -90.28097 11 ft 17 kts 287°
2026-05-04 00:35 29.99591 -90.28180 11 ft 15 kts
2026-05-04 00:35 29.99647 -90.28150 11 ft 5 kts 67°
2026-05-04 00:35 29.99651 -90.28122 11 ft 0 kts 105°
2026-05-04 00:36 29.99651 -90.28121 11 ft 0 kts 105°
2026-05-04 00:36 29.99635 -90.28058 11 ft 30 kts 106°
2026-05-04 00:37 29.99512 -90.27560 11 ft 97 kts 105°
2026-05-04 00:37 29.99272 -90.26576 11 ft 155 kts 106°
2026-05-04 00:37 29.98951 -90.25210 48 ft 196 kts 105°
2026-05-04 00:37 29.98628 -90.23724 774 ft 188 kts 102°
2026-05-04 00:38 29.98200 -90.22276 1274 ft 201 kts 115°
2026-05-04 00:38 29.97532 -90.20782 1673 ft 220 kts 118°
2026-05-04 00:38 29.96744 -90.19228 2272 ft 231 kts 120°
2026-05-04 00:38 29.95892 -90.17626 3037 ft 233 kts 120°
2026-05-04 00:39 29.95084 -90.16142 3577 ft 217 kts 119°
2026-05-04 00:39 29.94749 -90.15524 3623 ft 221 kts 119°
2026-05-04 00:39 29.94159 -90.14439 3779 ft 220 kts 120°
2026-05-04 00:39 29.93341 -90.12946 4030 ft 221 kts 120°
2026-05-04 00:40 29.92521 -90.11449 4268 ft 221 kts 119°
2026-05-04 00:40 29.91691 -90.09935 4510 ft 222 kts 120°
2026-05-04 00:40 29.90861 -90.08421 4749 ft 223 kts 120°
2026-05-04 00:40 29.90036 -90.06919 4985 ft 224 kts 120°
2026-05-04 00:41 29.89196 -90.05389 5221 ft 225 kts 120°
2026-05-04 00:41 29.88366 -90.03886 5455 ft 226 kts 119°
2026-05-04 00:41 29.87525 -90.02351 5693 ft 226 kts 119°
2026-05-04 00:41 29.86681 -90.00818 5929 ft 227 kts 119°
2026-05-04 00:42 29.85834 -89.99275 6158 ft 228 kts 120°
2026-05-04 00:42 29.84983 -89.97733 6379 ft 229 kts 119°
2026-05-04 00:42 29.84131 -89.96184 6602 ft 230 kts 119°
2026-05-04 00:42 29.83264 -89.94611 6900 ft 231 kts 119°
2026-05-04 00:43 29.82382 -89.93006 7549 ft 242 kts 119°
2026-05-04 00:43 29.81510 -89.91422 8536 ft 237 kts 120°
2026-05-04 00:43 29.80616 -89.89798 9233 ft 245 kts 120°
2026-05-04 00:43 29.79690 -89.88120 9857 ft 247 kts 120°
2026-05-04 00:44 29.78774 -89.86460 10301 ft 251 kts 121°
2026-05-04 00:44 29.77826 -89.84747 10614 ft 257 kts 121°
2026-05-04 00:44 29.76860 -89.82999 10937 ft 258 kts 121°
2026-05-04 00:44 29.75902 -89.81261 11233 ft 258 kts 121°
2026-05-04 00:45 29.74933 -89.79513 11526 ft 261 kts 121°
2026-05-04 00:45 29.73948 -89.77732 11843 ft 262 kts 121°
2026-05-04 00:45 29.72977 -89.75980 12182 ft 263 kts 121°
2026-05-04 00:45 29.66701 -89.64645 14303 ft 272 kts 121°
2026-05-04 00:46 29.58357 -89.49647 17026 ft 286 kts 121°
2026-05-04 00:46 29.45446 -89.26522 18718 ft 306 kts 122°
2026-05-04 00:46 29.26701 -88.93172 20672 ft 324 kts 123°
2026-05-04 00:46 29.06436 -88.57426 22636 ft 340 kts 125°
2026-05-04 00:47 28.85211 -88.20333 24808 ft 353 kts 127°
2026-05-04 00:47 28.63182 -87.82173 26679 ft 363 kts 128°
2026-05-04 00:47 28.40734 -87.43643 28606 ft 371 kts 129°
2026-05-04 00:47 28.21812 -87.11494 29997 ft 378 kts 130°
2026-05-04 00:48 28.20362 -87.09017 30120 ft 382 kts 130°
2026-05-04 00:48 28.18871 -87.06501 30250 ft 387 kts 130°
2026-05-04 00:48 28.17368 -87.03960 30373 ft 391 kts 129°
2026-05-04 00:49 28.15085 -87.00095 30584 ft 398 kts 130°
2026-05-04 00:49 28.13566 -86.97510 30803 ft 400 kts 130°
2026-05-04 00:49 28.11988 -86.94862 30961 ft 404 kts 130°
2026-05-04 00:49 28.10432 -86.92224 31268 ft 403 kts 130°
2026-05-04 00:50 28.08888 -86.89610 31595 ft 400 kts 130°
2026-05-04 00:50 28.07347 -86.87001 31920 ft 397 kts 131°
2026-05-04 00:50 28.05810 -86.84423 32238 ft 392 kts 131°
2026-05-04 00:50 28.04313 -86.81898 32559 ft 388 kts 131°
2026-05-04 00:51 28.02824 -86.79382 32857 ft 382 kts 132°
2026-05-04 00:51 28.01360 -86.76908 33107 ft 379 kts 127°
2026-05-04 00:51 28.00303 -86.74117 33157 ft 388 kts 109°
2026-05-04 00:52 27.98659 -86.68274 33137 ft 396 kts 112°
2026-05-04 00:52 27.97089 -86.62833 33311 ft 405 kts 112°
2026-05-04 00:52 27.96196 -86.59764 33631 ft 411 kts 112°
2026-05-04 00:53 27.95306 -86.56677 33935 ft 418 kts 113°
2026-05-04 00:53 27.94390 -86.53545 34172 ft 427 kts 112°
2026-05-04 00:53 27.93460 -86.50335 34380 ft 438 kts 113°
2026-05-04 00:53 27.92490 -86.47032 34547 ft 450 kts 112°
2026-05-04 00:54 27.91506 -86.43617 34721 ft 462 kts 113°
2026-05-04 00:54 27.90485 -86.40115 34893 ft 473 kts 113°
2026-05-04 00:54 27.89455 -86.36594 35059 ft 484 kts 113°
2026-05-04 00:54 27.88377 -86.32920 35212 ft 496 kts 113°
2026-05-04 00:55 27.87286 -86.29172 35338 ft 507 kts 114°
2026-05-04 00:55 27.86176 -86.25385 35476 ft 517 kts 114°
2026-05-04 00:55 27.85039 -86.21497 35686 ft 526 kts 114°
2026-05-04 00:55 27.83888 -86.17583 36098 ft 530 kts 114°
2026-05-04 00:56 27.82720 -86.13602 36104 ft 543 kts 114°
2026-05-04 00:56 27.80326 -86.05456 36096 ft 543 kts 114°
2026-05-04 00:57 27.77956 -85.97437 36108 ft 540 kts 114°
2026-05-04 00:57 27.75580 -85.89403 36109 ft 544 kts 114°
2026-05-04 00:58 27.65557 -85.55695 36099 ft 543 kts 114°
2026-05-04 00:58 27.57332 -85.23808 36071 ft 549 kts 105°
2026-05-04 00:59 27.55877 -85.15369 36070 ft 549 kts 107°
2026-05-04 00:59 27.54394 -85.06924 36076 ft 551 kts 106°
2026-05-04 01:00 27.52916 -84.98540 36076 ft 548 kts 106°
2026-05-04 01:00 27.51430 -84.90097 36077 ft 551 kts 106°
2026-05-04 01:01 27.49946 -84.81686 36078 ft 548 kts 107°
2026-05-04 01:01 27.48460 -84.73335 36084 ft 548 kts 107°
2026-05-04 01:02 27.46961 -84.64882 36082 ft 548 kts 107°
2026-05-04 01:02 27.45465 -84.56548 36087 ft 548 kts 106°
2026-05-04 01:03 27.43957 -84.48120 36082 ft 547 kts 107°
2026-05-04 01:03 27.42455 -84.39771 36086 ft 549 kts 107°
2026-05-04 01:03 27.41869 -84.35514 36077 ft 535 kts 106°
2026-05-04 01:04 27.41062 -84.31570 36064 ft 515 kts 110°
2026-05-04 01:04 27.39502 -84.23699 36063 ft 520 kts 109°
2026-05-04 01:05 27.37985 -84.15739 36064 ft 527 kts 109°
2026-05-04 01:05 27.36467 -84.07703 36067 ft 521 kts 109°
2026-05-04 01:06 27.34952 -83.99760 36065 ft 522 kts 108°
2026-05-04 01:06 27.33426 -83.91776 36067 ft 523 kts 109°
2026-05-04 01:07 27.31903 -83.83817 36070 ft 522 kts 109°
2026-05-04 01:07 27.30370 -83.75881 36066 ft 521 kts 109°
2026-05-04 01:08 27.28833 -83.67944 36070 ft 521 kts 109°
2026-05-04 01:08 27.27306 -83.60024 36070 ft 520 kts 109°
2026-05-04 01:09 27.25761 -83.52106 36073 ft 522 kts 109°
2026-05-04 01:09 27.24205 -83.44115 36075 ft 520 kts 109°
2026-05-04 01:10 27.22665 -83.36231 36076 ft 522 kts 109°
2026-05-04 01:10 27.21111 -83.28326 36049 ft 519 kts 109°
2026-05-04 01:11 27.19562 -83.20438 36046 ft 519 kts 109°
2026-05-04 01:11 27.18008 -83.12556 36021 ft 519 kts 110°
2026-05-04 01:12 27.16443 -83.04655 35694 ft 521 kts 109°
2026-05-04 01:12 27.15659 -83.00669 35416 ft 517 kts 109°
2026-05-04 01:12 27.14870 -82.96753 35139 ft 517 kts 109°
2026-05-04 01:12 27.14095 -82.92828 34868 ft 515 kts 109°
2026-05-04 01:13 27.13314 -82.88915 34597 ft 515 kts 109°
2026-05-04 01:13 27.12537 -82.85039 34328 ft 517 kts 109°
2026-05-04 01:13 27.11754 -82.81090 34062 ft 515 kts 109°
2026-05-04 01:13 27.10968 -82.77171 33794 ft 513 kts 108°
2026-05-04 01:14 27.10179 -82.73255 33524 ft 514 kts 108°
2026-05-04 01:14 27.09402 -82.69384 33272 ft 515 kts 109°
2026-05-04 01:14 27.08612 -82.65466 33020 ft 515 kts 109°
2026-05-04 01:14 27.07818 -82.61532 32800 ft 514 kts 108°
2026-05-04 01:15 27.07040 -82.57665 32583 ft 515 kts 108°
2026-05-04 01:15 27.06245 -82.53749 32358 ft 514 kts 108°
2026-05-04 01:15 27.05462 -82.49863 32146 ft 513 kts 108°
2026-05-04 01:15 27.04674 -82.45962 31938 ft 514 kts 108°
2026-05-04 01:16 27.03874 -82.42039 31718 ft 515 kts 108°
2026-05-04 01:16 27.03075 -82.38097 31492 ft 515 kts 108°
2026-05-04 01:16 27.02288 -82.34221 31270 ft 511 kts 108°
2026-05-04 01:16 27.01500 -82.30353 31013 ft 512 kts 108°
2026-05-04 01:17 27.00696 -82.26455 30772 ft 512 kts 108°
2026-05-04 01:17 26.99911 -82.22571 30520 ft 513 kts 108°
2026-05-04 01:17 26.99098 -82.18662 30285 ft 514 kts 107°
2026-05-04 01:17 26.98311 -82.14798 30036 ft 515 kts 108°
2026-05-04 01:18 26.97508 -82.10870 29789 ft 514 kts 107°
2026-05-04 01:18 26.96684 -82.06979 29543 ft 501 kts 110°
2026-05-04 01:18 26.95320 -82.03483 29290 ft 481 kts 129°
2026-05-04 01:18 26.93273 -82.00681 29049 ft 464 kts 144°
2026-05-04 01:19 26.90965 -81.98107 28808 ft 467 kts 143°
2026-05-04 01:19 26.88701 -81.95498 28556 ft 474 kts 142°
2026-05-04 01:19 26.86415 -81.92806 28315 ft 469 kts 141°
2026-05-04 01:19 26.84165 -81.90161 28059 ft 467 kts 142°
2026-05-04 01:20 26.81974 -81.87575 27810 ft 465 kts 141°
2026-05-04 01:20 26.79756 -81.84956 27565 ft 460 kts 142°
2026-05-04 01:20 26.77546 -81.82360 27318 ft 457 kts 141°
2026-05-04 01:20 26.75351 -81.79790 27068 ft 455 kts 142°
2026-05-04 01:21 26.73173 -81.77262 26813 ft 454 kts 141°
2026-05-04 01:21 26.71001 -81.74731 26569 ft 453 kts 141°
2026-05-04 01:21 26.68828 -81.72204 26028 ft 451 kts 141°
2026-05-04 01:21 26.66665 -81.69691 25451 ft 443 kts 141°
2026-05-04 01:22 26.64552 -81.67236 24877 ft 431 kts 141°
2026-05-04 01:22 26.62569 -81.64753 24297 ft 434 kts 134°
2026-05-04 01:22 26.60766 -81.62077 23756 ft 436 kts 134°
2026-05-04 01:22 26.58958 -81.59386 23179 ft 429 kts 134°
2026-05-04 01:23 26.57168 -81.56725 22616 ft 425 kts 134°
2026-05-04 01:23 26.55417 -81.54125 22075 ft 423 kts 133°
2026-05-04 01:23 26.53659 -81.51511 21530 ft 419 kts 133°
2026-05-04 01:23 26.51928 -81.48946 20981 ft 415 kts 133°
2026-05-04 01:24 26.50195 -81.46375 20433 ft 412 kts 133°
2026-05-04 01:24 26.48474 -81.43817 19891 ft 408 kts 133°
2026-05-04 01:24 26.46790 -81.41328 19358 ft 406 kts 133°
2026-05-04 01:24 26.45404 -81.39276 18921 ft 400 kts 132°
2026-05-04 01:25 26.43742 -81.36814 18387 ft 396 kts 132°
2026-05-04 01:25 26.42105 -81.34392 17862 ft 393 kts 133°
2026-05-04 01:25 26.40426 -81.32008 17331 ft 388 kts 136°
2026-05-04 01:25 26.38711 -81.29721 16827 ft 384 kts 135°
2026-05-04 01:26 26.37007 -81.27446 16344 ft 383 kts 135°
2026-05-04 01:26 26.35310 -81.25177 15852 ft 378 kts 135°
2026-05-04 01:26 26.33643 -81.22947 15376 ft 374 kts 135°
2026-05-04 01:26 26.31982 -81.20730 14908 ft 370 kts 135°
2026-05-04 01:27 26.30344 -81.18542 14441 ft 367 kts 135°
2026-05-04 01:27 26.28706 -81.16361 13916 ft 365 kts 134°
2026-05-04 01:27 26.27075 -81.14211 12943 ft 369 kts 135°
2026-05-04 01:27 26.25458 -81.12084 11909 ft 355 kts 134°
2026-05-04 01:28 26.23900 -81.10027 11038 ft 336 kts 134°
2026-05-04 01:28 26.22447 -81.08120 10307 ft 320 kts 134°
2026-05-04 01:28 26.21022 -81.06245 9982 ft 304 kts 134°
2026-05-04 01:28 26.19678 -81.04477 10016 ft 304 kts 134°
2026-05-04 01:29 26.18288 -81.02651 9972 ft 307 kts 133°
2026-05-04 01:29 26.16909 -81.00840 9973 ft 305 kts 134°
2026-05-04 01:29 26.15545 -80.99040 9971 ft 303 kts 132°
2026-05-04 01:29 26.14621 -80.97027 9961 ft 290 kts 106°
2026-05-04 01:30 26.14225 -80.94855 9718 ft 284 kts 103°
2026-05-04 01:30 26.13857 -80.92727 9288 ft 273 kts 103°
2026-05-04 01:30 26.13518 -80.90717 8928 ft 262 kts 102°
2026-05-04 01:30 26.13190 -80.88754 8580 ft 251 kts 103°
2026-05-04 01:31 26.12874 -80.86867 8281 ft 263 kts 102°
2026-05-04 01:31 26.12501 -80.84655 8139 ft 295 kts 102°
2026-05-04 01:31 26.12146 -80.82507 8151 ft 274 kts 102°
2026-05-04 01:31 26.11807 -80.80473 8103 ft 260 kts 102°
2026-05-04 01:32 26.11499 -80.78465 7876 ft 273 kts 100°
2026-05-04 01:32 26.11224 -80.76464 7711 ft 255 kts 100°
2026-05-04 01:32 26.10965 -80.74567 7446 ft 245 kts 100°
2026-05-04 01:32 26.10706 -80.72711 7051 ft 245 kts 100°
2026-05-04 01:33 26.10450 -80.70850 6638 ft 243 kts 100°
2026-05-04 01:33 26.10194 -80.69016 6256 ft 240 kts 100°
2026-05-04 01:33 26.09939 -80.67184 6081 ft 237 kts 100°
2026-05-04 01:33 26.09685 -80.65364 5975 ft 237 kts 102°
2026-05-04 01:34 26.09193 -80.63617 5950 ft 236 kts 108°
2026-05-04 01:34 26.08779 -80.61845 5900 ft 238 kts 103°
2026-05-04 01:34 26.08487 -80.60040 5841 ft 237 kts 99°
2026-05-04 01:34 26.08283 -80.58225 5780 ft 237 kts 96°
2026-05-04 01:35 26.08141 -80.56404 5712 ft 236 kts 94°
2026-05-04 01:35 26.08044 -80.54593 5610 ft 235 kts 93°
2026-05-04 01:35 26.07979 -80.52799 5463 ft 233 kts 92°
2026-05-04 01:35 26.07934 -80.50983 5311 ft 233 kts 91°
2026-05-04 01:36 26.07905 -80.49205 5140 ft 232 kts 91°
2026-05-04 01:36 26.07881 -80.47395 4944 ft 231 kts 91°
2026-05-04 01:36 26.07866 -80.45637 4733 ft 229 kts 90°
2026-05-04 01:36 26.07852 -80.43861 4504 ft 228 kts 90°
2026-05-04 01:37 26.07842 -80.42130 4297 ft 224 kts 90°
2026-05-04 01:37 26.07832 -80.40408 4040 ft 222 kts 89°
2026-05-04 01:37 26.07822 -80.38689 3780 ft 222 kts 89°
2026-05-04 01:37 26.07814 -80.36993 3513 ft 221 kts 89°
2026-05-04 01:38 26.07807 -80.35294 3237 ft 215 kts 89°
2026-05-04 01:38 26.07791 -80.33628 2940 ft 214 kts 89°
2026-05-04 01:38 26.07774 -80.32031 2684 ft 203 kts 89°
2026-05-04 01:38 26.07770 -80.30486 2429 ft 197 kts 88°
2026-05-04 01:39 26.07762 -80.28980 2177 ft 190 kts 88°
2026-05-04 01:39 26.07756 -80.27563 1970 ft 174 kts 87°
2026-05-04 01:39 26.07748 -80.26294 1752 ft 157 kts 87°
2026-05-04 01:39 26.07743 -80.25173 1544 ft 139 kts 87°
2026-05-04 01:40 26.07737 -80.23994 1323 ft 161 kts 88°
2026-05-04 01:40 26.07732 -80.22736 1112 ft 164 kts 88°
2026-05-04 01:40 26.07724 -80.21471 894 ft 162 kts 88°
2026-05-04 01:40 26.07717 -80.20237 728 ft 164 kts 88°
2026-05-04 01:41 26.07709 -80.18924 440 ft 168 kts 89°
2026-05-04 01:41 26.07701 -80.17666 230 ft 158 kts 89°
2026-05-04 01:41 26.07695 -80.16512 60 ft 145 kts 89°
2026-05-04 01:41 26.07690 -80.15449 12 ft 114 kts 90°
2026-05-04 01:42 26.07684 -80.14941 11 ft 44 kts 104°
2026-05-04 01:42 26.07656 -80.14682 12 ft 10 kts 104°
2026-05-04 01:42 26.07649 -80.14658 12 ft 5 kts 109°
2026-05-04 01:42 26.07617 -80.14570 12 ft 19 kts 118°
2026-05-04 01:43 26.07505 -80.14495 12 ft 24 kts 144°
2026-05-04 01:43 26.07470 -80.14356 11 ft 19 kts 144°
2026-05-04 01:43 26.07417 -80.14345 12 ft 2 kts 209°
2026-05-04 01:43 26.07394 -80.14344 11 ft 0 kts 178°